[[{"header":{"parameterUnit":"m.s-1","parameterCategory":1,"la1":30.2992,"la2":30.254,"lo1":-89.0895,"lo2":-89.0443,"dy":0.0025,"dx":0.0025,"nx":19,"ny":19,"refTime":"2026-05-15T21:00:00:Z","depth":0,"parameterNumber":2,"parameterNumberName":"U-component_of_WINDS"},"data":[0,0,0,-3.4468,-3.4469,-3.4511,-3.4511,-3.4574,-3.4575,0,0,0,0,0,0,0,0,0,0,0,-3.4461,-3.4461,-3.4468,-3.4469,-3.4511,-3.4511,-3.4574,-3.4575,0,0,0,0,0,0,0,0,0,0,0,-3.446,-3.4461,-3.4462,-3.4469,-3.4511,-3.4511,-3.4574,-3.4539,0,0,0,0,0,0,0,0,0,0,-3.4496,-3.4495,-3.4461,-3.4462,-3.4469,-3.4511,-3.4511,-3.4537,-3.4541,-3.4559,0,-3.4576,0,-3.4577,-3.458,-3.458,0,0,0,-3.4464,-3.4492,-3.4498,-3.4462,-3.447,-3.4511,-3.4491,-3.4539,-3.4544,-3.4564,-3.4577,-3.4579,-3.4578,-3.458,-3.458,-3.4699,-3.47,0,0,-3.4462,-3.4471,-3.4495,-3.4501,-3.4496,-3.4489,-3.4492,-3.4542,-3.4556,-3.4577,-3.4581,-3.4579,-3.4581,-3.4581,-3.4699,-3.47,0,0,0,-3.4458,-3.4469,-3.4475,-3.4499,-3.4506,-3.4491,-3.4494,-3.4554,-3.4555,-3.4581,-3.458,-3.4581,-3.4582,-3.4698,-3.4699,-3.4744,0,0,0,-3.4457,-3.4467,-3.4474,-3.448,-3.4505,-3.4531,-3.4505,-3.4552,-3.4557,-3.4579,-3.4581,-3.4583,-3.4697,-3.4698,-3.4741,-3.4763,0,0,0,-3.4456,-3.4467,-3.4475,-3.448,-3.4499,-3.453,-3.4533,-3.4552,-3.4556,-3.458,-3.4583,-3.4696,-3.4698,-3.4738,-3.4758,-3.4796,0,0,0,-3.4457,-3.4514,-3.4476,-3.4539,-3.4498,-3.4558,-3.4533,-3.4577,-3.4603,-3.4581,-3.4697,-3.4699,-3.4737,-3.4756,-3.4793,-3.4827,-3.4843,0,0,-3.4534,-3.4524,-3.4561,-3.4528,-3.4596,-3.4551,-3.4626,-3.4641,-3.4635,-3.4678,-3.4681,-3.4742,-3.4758,-3.4795,-3.4932,-3.4944,0,0,0,-3.4588,-3.4614,-3.463,-3.4656,-3.467,-3.4683,-3.4686,-3.4692,-3.4729,-3.4659,-3.4766,-3.4776,-3.4797,-3.4813,-3.4824,-3.4841,-3.4707,-3.4707,-3.4707,-3.4707,-3.4698,-3.4757,-3.4754,-3.4779,-3.4783,-3.4802,-3.4811,-3.4793,-3.4819,-3.483,-3.4915,-3.4934,-3.4942,-3.496,-3.485,-3.485,-3.485,-3.485,-3.4817,-3.4852,-3.4829,-3.4879,-3.4869,-3.4911,-3.4917,-3.4904,-3.4941,-3.4905,-3.4923,-3.4882,-3.4956,-3.4971,-3.4854,-3.4853,-3.4853,-3.4852,-3.4852,-3.4891,-3.4906,-3.4914,-3.4951,-3.4981,-3.4975,-3.5012,-3.5002,-3.4993,-3.5012,-3.5022,-3.5021,-3.5018,-3.5018,-3.5018,-3.5019,-3.5019,-3.5019,-3.5019,-3.4965,-3.4972,-3.5004,-3.5026,-3.5041,-3.5061,-3.5067,-3.5082,-3.5096,-3.5086,-3.5086,-3.5065,-3.4966,-3.494,-3.5024,-3.5023,-3.5022,-3.5022,-3.5022,-3.5075,-3.5049,-3.5099,-3.5115,-3.514,-3.517,-3.5158,-3.519,-3.5201,-3.522,-3.5197,-3.5126,-3.5114,-3.5105,-3.5083,-3.5199,-3.5199,-3.5199,-3.5199,-3.5136,-3.5131,-3.518,-3.5206,-3.5231,-3.5226,-3.5282,-3.5289,-3.5291,-3.5297,-3.528,-3.5251,-3.5243,-3.5236,-3.5225,-3.5204,-3.5348,-3.5348,-3.5348,-3.5203,-3.52,-3.5249,-3.5252,-3.5271,-3.5288,-3.5341,-3.5372,-3.5369,-3.5354,-3.5302,-3.5296,-3.5249,-3.5235,-3.5215,-3.5198,-3.5159,0,0]},{"header":{"parameterUnit":"m.s-1","parameterCategory":1,"la1":30.2992,"la2":30.254,"lo1":-89.0895,"lo2":-89.0443,"dy":0.0025,"dx":0.0025,"nx":19,"ny":19,"refTime":"2026-05-15T21:00:00:Z","depth":0,"parameterNumber":3,"parameterNumberName":"V-component_of_WINDS"},"data":[0,0,0,4.8758,4.8758,4.8769,4.8769,4.8784,4.8784,0,0,0,0,0,0,0,0,0,0,0,4.8757,4.8757,4.8758,4.8758,4.8769,4.8769,4.8784,4.8784,0,0,0,0,0,0,0,0,0,0,0,4.8757,4.8757,4.8757,4.8758,4.8769,4.8769,4.8784,4.8775,0,0,0,0,0,0,0,0,0,0,4.8764,4.8766,4.8757,4.8757,4.8758,4.8769,4.8769,4.8775,4.8776,4.8781,0,4.8786,0,4.8786,4.8786,4.8786,0,0,0,4.8756,4.8765,4.8766,4.8757,4.8758,4.8769,4.8763,4.8775,4.8776,4.8782,4.8787,4.8787,4.8786,4.8786,4.8786,4.8825,4.8826,0,0,4.8755,4.8759,4.8765,4.8767,4.8767,4.8763,4.8764,4.8776,4.878,4.8787,4.8787,4.8786,4.8786,4.8786,4.8825,4.8825,0,0,0,4.8755,4.8759,4.876,4.8766,4.8768,4.8763,4.8764,4.878,4.878,4.8788,4.8787,4.8786,4.8786,4.8825,4.8825,4.8844,0,0,0,4.8755,4.8759,4.876,4.8762,4.8768,4.8774,4.8768,4.8779,4.878,4.8786,4.8786,4.8786,4.8824,4.8825,4.8843,4.8852,0,0,0,4.8755,4.8759,4.8761,4.8762,4.8767,4.8774,4.8775,4.8779,4.878,4.8786,4.8786,4.8824,4.8825,4.8842,4.885,4.8865,0,0,0,4.8756,4.8776,4.8762,4.8783,4.8767,4.8786,4.8775,4.8788,4.8795,4.8786,4.8824,4.8825,4.8842,4.8849,4.8864,4.8878,4.8885,0,0,4.8783,4.8779,4.8792,4.8779,4.8803,4.8784,4.881,4.8811,4.8807,4.8819,4.882,4.8844,4.885,4.8865,4.8918,4.8923,0,0,0,4.8802,4.8811,4.8816,4.8825,4.8828,4.8832,4.883,4.8831,4.8841,4.8815,4.8852,4.8856,4.8865,4.8871,4.8876,4.8883,4.8828,4.8828,4.8828,4.8844,4.8841,4.8862,4.886,4.8868,4.8867,4.8873,4.8874,4.8866,4.8875,4.8878,4.8912,4.892,4.8923,4.893,4.8885,4.8885,4.8885,4.8886,4.8884,4.8896,4.8888,4.8906,4.8902,4.8916,4.8916,4.891,4.8923,4.8908,4.8915,4.8899,4.8929,4.8935,4.8887,4.8887,4.8886,4.8886,4.8886,4.8911,4.8917,4.892,4.8933,4.8944,4.8941,4.8954,4.8949,4.8944,4.8951,4.8955,4.8955,4.8955,4.8954,4.8954,4.8954,4.8954,4.8954,4.8954,4.8939,4.8941,4.8954,4.8962,4.8968,4.8975,4.8977,4.8982,4.8986,4.8982,4.8982,4.8973,4.8932,4.8922,4.8956,4.8956,4.8956,4.8955,4.8955,4.898,4.8971,4.8991,4.8997,4.9007,4.9019,4.9014,4.9026,4.9029,4.9036,4.9027,4.8998,4.8992,4.8989,4.8981,4.9027,4.9027,4.9027,4.9027,4.9004,4.9002,4.9023,4.9034,4.9044,4.9042,4.9064,4.9066,4.9066,4.9068,4.9061,4.905,4.9046,4.9043,4.9039,4.9031,4.9089,4.9089,4.9089,4.903,4.9029,4.905,4.9052,4.906,4.9067,4.9089,4.9101,4.9099,4.9092,4.907,4.9068,4.9049,4.9044,4.9035,4.9028,4.9014,0,0]}]]